Location: Catstown
(52.4386°N, 7.2633°W)
Time: 12:49:03
(UTC+00:00)

USA 238 DEB - Pass Details

Date: 18 September 2020
Orbit: 1006 x 1206 km, 63.4° (Epoch: 15 October)

Event Time Altitude Azimuth Distance (km) Brightness Sun altitude
Rises 19:29:05 0° 311° (NW) 3,905 7.9 -8.8°
Reaches altitude 10° 19:31:43 10° 314° (NW) 2,974 7.1 -9.2°
Maximum altitude 19:38:50 71° 39° (NE) 1,208 3.9 -10.3°
Enters shadow 19:45:39 13° 122° (ESE) 2,889 5.3 -11.3°
